Location: Epalinges
(46.5518°N, 6.6683°E)
Time: 00:22:35
(UTC+00:00)

Cosmos 1606 - Pass Details

Date: 20 June 2021
Orbit: 501 x 527 km, 82.5° (Epoch: 04 August)

Event Time Altitude Azimuth Distance (km) Brightness Sun altitude
Rises 00:56:56 0° 352° (N) 2,655 7.4 -17.6°
Reaches altitude 10° 00:59:06 10° 355° (N) 1,758 6.4 -17.5°
Maximum altitude 01:02:57 72° 80° (E) 545 2.8 -17.2°
Enters shadow 01:04:42 30° 159° (SSE) 936 3.6 -17.1°
